Location: Newark
(7.0858°N, 171.3717°E)
Time: 03:53:08
(UTC+00:00)

N. Korean satellite - Pass Details

Date: 03 October 2021
Orbit: 450 x 495 km, 97.3° (Epoch: 15 October)

Event Time Altitude Azimuth Distance (km) Brightness Sun altitude
Rises 17:10:55 0° 22° (NNE) 2,560 10.5 -18.5°
Reaches altitude 10° 17:13:04 10° 30° (NNE) 1,683 9.6 -17.9°
Maximum altitude 17:16:29 40° 100° (E) 741 8.0 -17.1°
Drops below altitude 10° 17:19:55 10° 171° (S) 1,690 9.4 -16.2°
Sets 17:22:04 0° 179° (S) 2,571 10.3 -15.7°
